Theta_e
319 319 318 321 323 322 327 329 330 330 330 344 344 348 349 350 351 348 351 352 345 348 347 345 338 332 330 331 333 335 336 335 334 334 335 337 339 339 339 339 337 335 335 335 325 320 323 326 330
319 318 320 316 322 324 325 324 328 329 332 348 347 350 351 353 356 354 354 353 345 347 347 343 337 332 332 332 334 335 335 334 334 332 334 336 337 337 338 336 333 334 335 331 319 320 324 328 330
318 318 317 319 318 323 326 325 326 325 328 330 348 347 350 354 355 353 354 352 347 348 347 342 337 333 333 333 334 334 334 334 333 332 333 335 335 335 334 334 335 333 329 323 318 321 324 328 330
318 315 315 320 321 320 326 323 322 323 325 340 347 352 346 347 351 354 355 350 347 347 346 342 337 333 333 334 334 334 334 334 333 333 334 334 334 336 337 337 335 330 323 318 319 321 324 327 330
316 314 319 319 319 320 325 322 322 323 327 344 347 351 348 353 354 355 353 348 345 347 346 341 338 333 334 334 335 335 335 335 334 333 334 337 337 339 339 338 335 327 321 318 319 321 324 327 329
313 315 318 320 320 324 326 322 322 325 345 347 348 348 347 354 354 352 348 346 345 346 345 340 339 334 334 335 335 335 335 335 335 334 332 333 337 339 339 337 333 328 321 318 318 320 324 327 328
312 316 318 319 321 322 326 320 326 323 333 336 341 347 344 352 353 350 347 346 345 345 345 341 340 338 335 335 336 337 336 335 336 336 334 331 330 330 331 332 331 328 322 319 317 318 320 323 324
313 314 318 319 322 322 324 320 320 320 325 329 333 338 341 347 353 351 350 349 347 346 345 344 342 341 339 338 336 337 338 337 336 337 337 335 332 330 329 327 327 326 323 320 318 317 317 317 317
313 314 316 318 321 320 323 319 319 318 321 325 326 330 330 342 351 350 350 353 350 348 347 346 345 344 343 341 340 340 339 339 339 336 337 338 337 334 331 330 328 326 323 320 319 318 317 317 317
311 316 321 319 320 319 320 320 319 318 320 319 324 324 326 346 348 349 351 352 353 351 348 347 346 346 345 344 343 343 343 342 341 340 337 338 339 338 335 332 330 328 326 323 320 319 318 317 318
310 320 322 321 320 320 322 322 322 320 320 319 319 320 320 320 337 350 351 352 351 349 347 344 345 346 346 346 346 345 345 345 345 344 342 339 339 341 340 338 335 332 330 328 324 321 319 318 318
312 312 317 323 326 324 318 323 328 330 323 319 317 319 319 318 318 328 349 352 353 353 349 345 347 348 347 347 347 346 346 346 345 345 345 344 341 340 342 342 340 338 334 331 330 326 323 321 319
310 312 314 315 318 318 321 324 329 325 325 317 316 317 317 316 316 321 344 348 353 353 352 350 347 345 346 347 347 347 347 347 346 345 345 345 345 343 341 340 343 343 340 336 333 330 327 324 322
310 311 313 314 314 315 321 317 315 324 324 319 317 316 315 315 316 317 318 320 324 346 353 353 351 348 345 346 347 347 346 346 345 344 342 341 344 345 344 342 342 343 344 343 340 335 331 329 324
311 311 312 312 313 314 315 316 316 318 317 317 318 314 314 314 315 316 319 326 330 331 333 346 353 351 348 346 347 346 344 344 344 344 345 346 345 345 345 345 344 344 344 345 344 342 339 335 332
309 309 310 311 312 313 315 316 316 316 316 317 315 314 313 313 314 316 318 324 330 337 337 338 347 349 348 346 345 345 346 347 346 345 345 344 345 346 347 347 346 345 345 345 345 344 343 341 338
309 311 310 312 312 314 314 315 315 315 314 315 314 313 313 312 314 316 319 323 328 340 345 349 349 348 347 346 348 348 347 345 346 347 346 345 346 347 347 347 346 346 345 345 344 344 342 340 338
311 313 313 313 314 313 313 313 313 313 313 313 312 312 312 312 313 316 319 321 323 328 336 345 350 351 350 349 348 342 346 349 352 351 350 349 349 348 346 346 347 346 346 345 344 343 341 341 339
313 314 315 315 315 316 314 314 314 315 312 312 312 313 313 312 313 314 316 319 324 326 326 326 326 325 325 322 322 323 322 327 335 343 344 345 343 338 342 348 346 345 345 345 343 342 340 339 339
315 315 315 315 315 314 314 315 314 313 312 313 313 313 313 314 314 318 323 324 325 327 326 324 323 322 322 322 323 325 325 325 324 324 323 326 328 329 333 339 345 347 346 344 344 343 341 340 340
315 316 315 315 316 315 315 314 314 315 314 314 313 313 313 313 313 318 322 323 324 324 324 323 322 321 320 320 321 322 322 322 321 321 321 321 321 322 324 325 329 332 340 344 344 344 342 341 341
315 314 316 316 315 314 314 314 313 313 314 316 316 313 312 312 312 317 318 318 320 320 321 321 320 321 322 321 321 321 321 321 321 321 321 320 321 323 326 327 328 329 330 335 340 344 343 341 340
315 315 315 315 315 313 313 313 313 314 317 315 314 313 315 312 312 316 317 318 319 320 320 320 321 322 321 321 321 321 322 322 321 320 320 322 324 326 325 324 322 320 325 330 334 339 343 343 341
315 314 311 310 310 313 313 313 313 315 316 314 316 316 314 313 313 314 314 317 318 318 319 322 322 321 320 320 322 322 321 320 320 320 323 323 326 324 322 320 320 322 327 329 330 333 337 340 340
312 310 313 314 313 314 313 314 313 316 320 319 318 314 313 312 311 311 311 311 315 318 320 322 320 320 319 318 320 319 319 319 318 319 321 325 326 323 321 320 319 320 321 325 330 332 334 335 337
318 312 312 316 315 314 318 319 320 321 318 315 314 313 312 313 312 312 312 313 315 316 316 317 317 317 318 319 318 318 317 317 318 320 322 325 322 322 321 320 319 319 319 319 320 323 328 334 334
321 320 315 317 318 319 318 318 318 320 318 318 316 314 313 312 310 311 310 310 310 312 313 313 316 317 317 317 317 317 316 317 319 320 324 321 321 321 320 319 318 317 318 318 318 319 321 323 327
321 320 322 316 323 324 320 322 318 323 320 320 318 317 316 313 310 308 307 309 310 311 311 312 312 313 314 315 315 316 319 321 321 323 321 320 320 321 320 319 316 316 315 316 317 318 318 320 323
320 319 319 318 317 320 321 320 318 323 320 318 314 313 312 310 309 309 309 311 311 312 312 312 312 312 312 312 312 313 315 317 318 319 320 320 321 321 320 318 316 316 315 314 316 317 318 320 323
318 321 320 320 324 316 313 317 318 317 314 313 312 311 310 309 309 308 308 309 310 310 310 310 310 310 309 309 309 309 309 310 310 311 314 319 322 321 320 318 317 317 315 315 315 315 317 318 320
Wind_Speed
15 13 13 2 2 4 4 5 3 6 9 5 1 4 4 4 2 3 2 21 27 38 32 30 28 27 27 26 24 23 23 23 22 22 23 24 25 24 23 21 19 17 15 13 12 13 14 14 14
14 15 2 2 4 0 5 5 6 6 5 6 5 4 5 3 3 6 12 15 35 36 33 31 28 26 26 25 24 23 22 22 21 21 23 23 24 23 22 20 18 16 15 13 13 14 15 14 13
16 4 2 4 3 5 4 5 7 3 4 13 2 2 2 1 4 8 10 24 39 35 32 30 28 27 26 25 24 23 22 21 20 21 22 23 23 22 21 19 17 15 13 13 13 14 14 13 12
5 4 3 3 7 6 3 7 9 13 9 0 5 4 3 2 8 11 26 32 37 34 31 29 27 27 26 25 24 23 22 21 20 20 21 22 22 21 19 17 15 14 13 13 13 13 13 12 11
2 1 1 1 5 5 3 6 8 10 4 4 3 2 3 4 13 24 27 36 37 34 31 29 27 26 25 24 23 23 21 20 20 20 20 20 20 18 17 15 14 13 13 13 13 13 13 12 11
0 1 2 4 5 4 4 8 5 5 4 4 6 5 2 11 28 25 30 35 35 35 31 29 28 27 25 24 23 23 22 21 20 20 20 20 19 18 16 14 13 13 12 12 12 12 12 12 12
6 3 5 4 3 4 4 6 4 5 2 2 6 4 2 7 16 28 31 34 34 33 32 30 29 27 26 25 24 23 23 23 21 20 19 19 19 18 17 15 14 13 13 13 13 13 13 13 13
4 4 3 5 5 7 4 2 5 7 4 2 8 6 6 7 19 22 22 30 32 33 33 34 32 30 28 27 25 24 23 23 22 21 20 20 19 19 18 18 16 15 15 14 14 14 14 14 14
4 4 5 6 6 6 6 5 8 4 6 3 5 6 7 22 23 20 18 20 26 28 32 33 33 33 33 31 29 26 25 23 23 23 22 20 20 20 19 19 18 17 17 17 16 16 16 15 15
5 6 12 5 0 5 9 5 6 6 9 7 4 7 9 26 27 20 16 16 19 25 32 33 35 35 34 32 31 29 27 26 25 25 24 24 22 21 21 20 20 19 19 19 18 18 18 18 19
4 12 13 3 6 4 10 17 2 5 2 4 4 6 3 7 7 16 20 24 36 32 31 36 37 36 35 34 32 31 30 28 27 26 26 26 24 23 22 22 21 21 21 22 22 21 22 23 23
5 4 6 13 18 11 5 9 14 10 7 6 6 6 4 9 9 11 14 19 22 27 34 32 34 34 35 33 33 33 32 31 31 30 29 28 27 25 24 23 22 23 23 24 25 25 25 26 26
5 2 10 10 9 12 15 23 17 16 9 6 5 3 6 6 7 13 21 23 27 29 32 34 34 34 35 33 31 31 30 28 28 27 29 30 30 30 29 29 28 27 28 27 28 29 29 29 29
5 8 6 8 12 18 24 16 3 26 21 17 8 5 5 6 8 6 17 18 20 29 32 35 34 35 35 36 32 30 28 26 25 26 27 28 31 32 32 32 32 32 32 30 30 32 33 34 31
12 4 7 14 13 11 10 13 17 24 12 17 19 7 8 9 9 10 6 26 20 20 21 31 34 34 35 34 30 25 26 25 25 26 25 26 30 32 33 34 35 35 35 34 33 33 33 34 34
8 4 5 9 12 13 13 20 18 18 18 19 11 9 5 8 10 14 12 15 17 17 17 16 21 23 25 25 25 24 19 20 22 23 23 24 27 30 31 34 36 36 36 36 36 36 36 38 38
3 5 5 8 11 10 17 8 12 11 11 11 10 9 9 8 8 15 15 20 22 21 21 19 18 21 24 21 16 16 18 22 22 22 26 27 27 28 30 33 35 34 34 35 37 37 37 34 35
5 3 4 6 4 5 4 7 10 9 9 12 11 9 9 9 12 18 17 19 22 22 24 24 21 21 21 20 18 11 11 11 14 15 14 16 20 24 29 34 36 36 35 34 34 37 35 38 34
3 3 5 4 6 1 6 5 15 12 8 9 9 9 9 10 10 6 14 19 24 23 26 28 29 27 27 25 22 17 15 11 8 9 9 11 13 17 21 26 33 35 37 38 33 30 32 33 34
5 3 6 6 5 5 4 6 7 4 6 12 11 9 9 6 7 5 19 27 33 34 31 29 27 25 21 17 11 5 5 3 2 4 6 8 10 12 14 16 22 27 31 35 38 38 31 27 28
5 4 6 7 3 1 2 5 4 4 3 4 3 4 5 9 10 8 11 25 33 35 31 29 25 21 17 14 12 10 6 2 2 5 8 11 14 16 16 18 19 20 24 30 33 36 34 30 31
6 7 11 9 4 3 2 4 4 5 6 3 4 6 9 10 8 8 10 15 29 31 27 25 22 20 17 16 13 9 6 5 6 7 8 11 13 15 16 17 19 20 22 25 29 32 35 29 28
9 9 13 7 3 5 2 4 6 2 3 5 8 7 8 11 10 12 15 23 26 26 22 18 17 17 15 12 10 10 12 11 10 11 11 11 11 12 15 17 20 24 24 24 25 28 28 33 31
6 4 7 4 4 1 4 5 5 2 2 5 4 7 7 8 2 6 9 16 18 19 17 17 17 14 13 13 15 16 15 14 14 13 10 10 10 13 17 15 17 19 22 25 27 26 27 29 29
7 6 2 3 2 5 3 3 7 2 2 6 3 7 4 6 7 8 10 7 9 14 16 18 19 18 17 17 18 17 17 15 15 15 13 13 12 11 13 14 15 17 19 22 23 27 27 28 28
2 5 5 7 4 4 4 4 3 2 5 7 6 5 7 6 8 9 9 13 19 20 19 20 21 21 22 24 24 22 19 19 19 18 17 16 14 11 11 11 12 15 17 17 20 23 26 27 28
1 3 3 6 3 3 3 5 2 4 8 9 8 8 6 6 7 5 7 5 6 9 14 15 21 27 28 28 24 21 21 22 23 23 20 18 16 15 15 15 17 18 18 20 20 20 24 27 29
3 3 2 3 5 4 3 3 4 2 5 3 6 6 6 7 8 8 8 13 13 12 13 12 12 14 12 12 15 19 22 22 23 23 22 20 19 18 17 17 18 20 21 25 23 22 23 25 28
4 2 4 4 4 4 3 5 4 5 5 7 8 7 7 8 9 8 7 16 20 20 22 21 22 20 20 20 20 17 16 16 18 21 24 23 23 23 21 20 19 20 22 23 25 26 26 25 27
3 2 4 4 4 2 3 5 4 6 6 8 7 6 7 8 6 6 6 11 15 18 20 20 20 21 21 21 22 23 22 22 21 19 19 23 26 27 26 25 24 22 23 24 25 29 29 29 27
Wind_Direction
311 329 328 50 47 67 271 257 257 287 329 320 21 124 155 65 238 212 273 164 164 160 162 160 159 159 154 152 149 147 145 143 141 142 145 149 151 151 151 151 151 148 147 148 149 147 144 142 141
321 327 29 83 107 237 265 240 251 234 323 320 42 1 54 22 88 117 114 163 165 161 162 161 160 160 156 154 153 152 150 150 149 150 151 153 155 156 157 156 156 156 156 156 154 152 150 150 151
314 315 91 128 163 197 228 228 261 309 215 263 263 47 62 107 106 156 160 162 163 163 164 162 162 162 160 158 157 157 156 156 156 155 155 157 158 159 159 159 159 160 161 161 160 159 159 159 161
296 4 22 121 232 254 233 315 300 306 323 149 151 86 69 114 163 173 160 166 164 164 166 165 163 165 164 163 163 163 162 162 162 161 161 162 162 162 163 163 165 166 166 167 165 167 168 169 170
184 65 192 214 259 265 325 259 290 286 248 147 130 127 72 30 140 150 162 168 166 166 168 167 166 169 169 169 168 169 169 169 168 168 169 169 170 170 170 171 174 174 173 174 174 176 179 182 183
232 138 106 234 250 264 282 282 274 321 109 143 112 105 26 150 139 159 165 171 172 167 170 171 172 173 176 176 176 177 178 177 177 177 177 178 180 181 183 184 186 186 186 185 185 188 191 195 197
157 165 193 194 258 273 220 295 349 321 264 165 130 92 115 204 163 163 168 173 173 171 172 176 178 178 181 184 184 185 186 187 186 186 187 188 190 192 193 196 197 198 197 199 198 199 202 205 210
166 139 163 209 209 256 198 14 293 359 330 353 159 157 185 218 167 164 168 172 175 177 179 181 183 184 187 189 192 193 194 195 196 195 195 196 198 201 203 202 205 208 209 211 210 212 213 215 219
213 114 200 201 179 266 230 53 333 331 344 320 309 141 170 171 159 156 158 169 178 185 188 188 189 191 193 194 195 197 200 202 204 205 206 205 206 208 210 213 215 218 218 216 218 222 224 227 231
192 188 221 195 299 305 321 41 357 354 5 4 15 21 89 146 159 162 171 177 183 188 195 195 196 197 198 199 199 200 202 205 208 212 212 213 216 217 219 222 223 227 230 231 231 230 230 232 234
223 211 219 194 287 235 317 303 13 323 120 317 359 309 117 123 170 173 187 184 190 195 196 200 202 203 202 203 204 204 205 209 212 216 218 220 223 225 228 233 234 234 236 242 240 238 238 238 240
180 203 156 219 254 269 266 306 293 283 283 219 212 230 308 133 173 194 189 191 194 199 204 207 208 207 207 206 208 209 209 211 215 216 220 221 225 230 235 242 246 249 246 249 251 251 248 249 251
195 164 190 233 244 283 299 274 263 275 254 218 214 236 215 242 183 175 195 203 204 207 213 214 213 211 211 209 215 214 215 214 218 219 222 224 227 230 232 236 242 247 254 253 257 258 258 257 258
200 202 205 244 224 234 243 254 43 276 285 273 220 203 197 248 244 169 173 189 199 214 218 219 218 216 213 212 218 219 222 223 226 229 231 230 232 235 238 241 243 246 249 253 257 260 261 263 264
229 167 225 231 230 237 232 257 233 243 265 267 272 206 226 222 243 220 187 173 183 198 217 219 220 217 214 213 218 224 227 232 236 240 243 242 241 242 244 247 249 251 254 256 258 258 263 265 267
159 154 224 235 218 232 176 241 241 234 226 233 245 272 250 251 228 230 203 164 164 172 191 199 208 210 209 211 218 225 231 237 242 249 252 257 257 257 255 255 258 260 258 257 258 260 261 261 262
355 177 183 270 201 204 185 210 226 223 205 224 235 245 245 228 228 225 205 178 158 153 162 172 187 194 197 202 209 221 227 236 247 254 255 261 267 269 265 264 267 266 264 261 260 259 259 258 264
214 197 206 212 236 200 154 246 252 242 209 223 225 233 242 235 218 201 191 173 167 155 148 151 163 174 187 198 201 185 189 220 240 252 259 273 276 276 267 265 265 268 265 261 258 257 255 257 257
237 225 233 238 240 261 249 268 266 266 212 214 223 233 239 231 233 194 181 167 158 155 154 154 152 154 157 159 164 176 176 169 174 204 240 263 279 287 285 280 273 266 262 265 264 262 254 255 255
223 248 276 283 266 160 242 239 260 277 228 209 212 227 234 231 238 136 154 159 164 166 168 168 167 166 171 173 164 146 161 169 228 278 294 315 322 319 319 307 294 284 275 265 263 261 259 258 255
232 197 253 218 329 210 220 307 326 311 272 180 254 239 253 229 230 166 175 172 169 172 172 168 164 162 163 162 158 150 150 162 273 309 314 314 314 316 320 317 307 300 289 274 268 264 252 254 258
256 207 238 254 134 219 110 264 284 299 313 343 266 275 266 254 242 185 181 187 179 175 170 168 168 167 163 158 159 165 186 219 252 271 285 300 304 311 324 327 325 319 308 292 282 269 258 248 255
229 217 207 209 180 123 334 87 270 315 293 287 297 277 247 246 237 199 188 182 175 169 170 171 170 163 164 168 178 187 198 218 235 252 268 281 296 307 314 318 321 319 311 303 294 281 258 255 246
274 107 53 48 96 206 219 138 287 241 275 293 279 267 278 322 215 155 134 153 165 163 171 173 172 178 190 196 196 199 212 222 232 253 266 275 273 286 301 317 323 323 316 309 304 290 279 265 255
50 60 1 323 352 214 281 102 228 281 327 248 285 328 353 82 77 95 93 96 144 161 168 177 191 198 206 217 217 228 233 239 255 266 262 256 253 271 294 308 318 325 324 316 310 300 286 280 262
16 135 151 204 200 230 315 227 208 10 34 43 71 59 24 71 115 121 147 171 181 188 194 201 208 214 216 217 224 232 240 249 254 254 249 240 252 270 287 297 310 316 320 328 318 310 301 291 285
217 58 175 106 14 72 258 292 4 36 39 41 46 50 31 37 9 358 348 325 287 240 233 241 235 227 226 227 233 240 246 248 248 252 238 244 254 267 279 293 302 306 310 313 315 313 306 302 292
124 150 72 16 144 202 285 265 216 69 63 43 22 9 16 29 29 33 33 17 9 352 332 314 302 281 307 310 302 291 284 264 250 238 243 251 259 260 269 279 290 298 311 313 308 304 304 300 294
21 46 71 109 133 164 168 255 215 137 20 355 22 13 45 57 50 42 37 44 44 40 37 32 33 30 28 20 13 4 348 329 305 294 279 261 260 261 261 268 274 287 298 309 305 298 299 296 288
90 120 119 138 202 163 160 261 69 48 34 84 48 45 48 59 43 36 34 28 22 14 8 2 357 353 349 343 338 336 333 331 330 331 321 298 285 268 261 263 265 274 285 294 297 295 295 287 278